CAPE
1187 1133 1175 1221 1262 966 862 755 815 1053 1009 956 998 1103 1178 1131 1046 1067 1009 855 838 838 781 741 807 811 762 654 437 343 299 209 172 137 103 62 53 35 37 11 24 47 43
1180 1264 1160 1238 1236 1032 961 803 845 1098 1228 1052 981 962 935 927 929 905 840 822 885 814 697 604 629 699 615 310 122 52 34 40 47 47 31 27 21 23 19 1 18 34 34
1197 1332 1193 1187 1295 1033 1000 944 963 1113 1369 1334 1181 1089 1007 944 835 725 712 836 815 651 381 299 352 387 255 53 22 13 0 1 0 0 0 1 25 27 12 4 13 15 32
1232 1319 1255 1195 1263 1166 1113 1125 1288 1301 1340 1334 1260 1092 986 864 821 790 700 699 678 529 493 483 295 133 37 13 15 4 0 0 0 0 0 0 13 15 19 14 20 24 19
1348 1459 1354 1186 1199 1145 1105 1235 1297 1405 1438 1339 1293 1128 928 797 816 816 656 585 516 415 370 400 179 6 0 0 1 5 0 0 0 0 0 0 1 17 12 16 13 6 9
1231 1406 1531 1323 1224 1247 1237 1351 1379 1453 1008 911 1356 1065 1064 1068 1009 724 610 586 459 296 211 108 15 0 0 9 48 0 2 0 0 0 0 3 9 13 11 11 11 8 6
1173 1429 1575 1511 1411 1421 1483 1453 1548 1628 1336 1185 1105 767 341 861 798 623 558 467 387 298 158 79 24 8 6 5 6 0 0 0 0 0 0 3 11 3 4 8 2 2 2
847 1257 1387 1570 1672 1674 1711 1675 1601 1280 1343 1183 550 53 23 487 742 573 476 391 275 253 81 49 13 0 0 0 0 0 0 0 0 0 0 0 7 7 6 2 2 6 4
1026 1096 1220 1361 1533 1766 1969 1917 1788 1471 1021 900 254 67 119 188 125 363 269 361 200 127 52 27 7 0 0 0 0 2 0 0 0 0 0 0 7 9 5 6 6 6 4
951 981 983 955 946 1072 1456 1564 1749 1718 1025 628 244 34 47 0 30 213 227 317 158 49 9 4 0 0 0 0 0 0 0 0 0 0 0 1 6 6 5 8 7 6 8
643 663 741 602 353 213 219 545 890 892 1067 518 204 12 16 0 13 357 363 206 101 25 0 1 0 0 0 0 0 0 0 0 0 0 0 4 6 7 8 6 5 5 4
383 338 273 249 92 25 18 3 13 47 363 350 149 72 95 4 68 47 272 124 61 4 7 10 0 0 0 0 0 0 0 0 0 0 0 2 6 6 10 6 3 2 3
437 516 464 288 177 87 21 1 0 0 4 136 87 91 140 92 58 119 167 70 10 0 0 0 0 0 0 0 0 0 0 0 0 0 0 0 0 5 4 1 1 1 3
585 628 572 422 240 21 0 0 0 0 0 43 32 67 76 72 44 143 99 10 0 0 0 0 0 0 0 0 0 0 0 0 0 0 0 0 0 2 1 1 2 3 4
515 645 567 312 116 0 0 0 0 0 0 0 18 2 21 74 63 62 20 2 0 0 0 0 0 0 0 0 0 0 0 0 0 0 0 0 0 0 1 1 2 2 7
543 637 345 152 5 0 0 0 0 0 1 3 3 2 0 27 60 35 2 0 0 0 0 0 0 0 0 0 0 0 0 0 0 0 0 0 0 0 0 2 1 3 6
512 357 184 32 0 0 0 0 0 0 0 4 8 0 11 80 66 1 1 0 0 0 0 0 0 0 0 0 0 0 0 0 0 0 0 0 0 0 0 0 1 4 6
347 233 21 17 27 6 10 0 0 0 1 7 3 51 47 28 60 5 0 0 0 0 0 0 0 0 0 0 0 0 0 0 0 0 0 0 0 0 0 0 2 3 5
278 127 4 6 18 0 24 2 0 0 1 7 0 64 100 91 56 0 0 0 0 0 0 0 0 0 0 0 0 0 0 0 0 0 0 0 0 0 0 0 0 0 0
101 22 0 0 9 0 1 28 6 1 0 38 20 33 82 89 60 0 0 0 0 0 0 0 0 0 0 0 0 0 0 0 0 0 0 0 0 0 0 0 0 0 0
40 3 0 0 0 0 0 1 6 1 0 6 26 33 46 64 55 11 0 0 0 0 0 0 0 0 0 0 0 0 0 0 0 0 0 0 0 0 0 0 0 0 0
40 1 0 0 0 0 0 0 1 2 1 0 2 22 74 41 20 12 0 0 0 0 0 0 0 0 0 0 0 0 0 0 0 0 0 0 0 0 0 0 0 0 0
37 0 0 0 0 0 0 0 0 0 0 6 3 16 29 7 1 4 5 0 0 0 0 0 0 0 0 0 0 0 0 0 0 0 0 0 0 0 0 0 0 0 0
20 0 0 0 0 0 0 0 0 0 0 0 18 7 39 9 0 12 8 1 7 5 2 0 0 0 0 0 0 0 0 0 0 0 0 0 0 0 0 0 0 0 0
7 0 0 0 0 0 1 0 0 0 0 0 0 24 10 13 2 0 0 4 19 15 8 2 0 0 0 0 0 0 0 0 0 0 0 0 0 0 0 0 0 0 0
3 0 0 0 0 0 0 0 0 0 2 0 1 1 4 10 2 0 0 0 6 0 2 1 0 0 0 0 0 0 0 0 7 0 5 3 1 0 0 0 0 0 0
CIN
-187 -240 -236 -211 -179 -229 -227 -226 -203 -178 -175 -157 -125 -98 -69 -61 -44 -21 -22 -41 -34 -22 -23 -13 0 0 -1 -1 -4 -2 -1 -3 -13 -19 -32 -53 -86 -121 -162 -96 -1 0 -1
-174 -248 -245 -209 -186 -196 -187 -200 -189 -156 -130 -149 -146 -118 -99 -80 -62 -41 -36 -29 -17 -21 -30 -18 -1 0 -6 -19 -28 -77 -123 -105 -67 -66 -101 -171 -1 0 0 -1 -5 0 0
-173 -248 -237 -205 -180 -188 -168 -172 -166 -148 -98 -92 -93 -63 -60 -61 -70 -83 -66 -25 -17 -31 -50 -36 -11 -10 -22 -66 -88 -110 0 -142 0 0 0 -2 -1 0 -3 -8 -8 -7 -7
-227 -260 -229 -212 -179 -171 -161 -161 -134 -130 -95 -66 -60 -77 -73 -78 -56 -54 -55 -38 -29 -33 -24 -14 -17 -22 -94 -148 -158 -230 0 0 0 0 0 0 -2 -3 -7 -8 -10 -8 -8
-229 -234 -214 -211 -177 -167 -169 -150 -129 -97 -72 -65 -56 -68 -94 -107 -89 -39 -44 -33 -44 -43 -26 -9 -19 -122 0 0 -191 -285 0 0 0 0 0 0 -2 -3 -3 -4 -3 -4 -4
-212 -211 -205 -202 -169 -147 -149 -143 -133 -94 -150 -154 -21 -39 -49 -54 -47 -88 -46 -26 -22 -54 -45 -45 -111 0 0 -180 -107 0 -1 0 0 0 0 -3 -6 -1 0 -1 -2 -2 -2
-206 -202 -184 -182 -167 -137 -112 -102 -77 -50 -70 -82 -42 -44 -144 -3 -62 -115 -94 -30 -21 -29 -59 -45 -54 -93 -170 -148 -198 0 0 0 0 0 0 -3 -3 -3 -1 0 -1 -1 0
-231 -228 -180 -154 -127 -101 -64 -49 -40 -48 -42 -24 -68 -249 -326 -2 -23 -108 -51 -17 -13 -19 -58 -70 -109 0 0 0 0 0 0 0 0 0 0 -1 -1 -1 0 0 -1 -1 -1
-264 -255 -217 -175 -130 -66 -20 -7 -3 -24 -20 -8 -67 -136 -81 -21 -52 -105 -142 -27 -17 -30 -53 -98 -168 0 0 0 0 -374 0 0 0 0 0 0 -1 -1 0 -1 0 -1 0
-251 -249 -249 -226 -198 -145 -75 -30 -4 -2 -11 -5 -18 -109 -77 -61 -64 -83 -105 -69 -44 -54 -99 -186 0 0 0 0 0 0 0 0 0 0 0 -1 0 0 0 -1 0 0 0
-273 -281 -292 -284 -295 -286 -252 -143 -46 -32 -7 -12 -17 -111 -99 0 -109 -8 -25 -61 -57 -78 0 -40 0 0 0 0 0 0 0 0 0 0 0 -1 0 -1 0 0 0 0 0
-271 -324 -355 -360 -356 -358 -344 -132 -76 -103 -50 -16 -19 -48 -6 -63 -45 -64 -7 -67 -86 -42 -82 -188 0 0 0 0 0 0 0 0 0 0 0 -1 0 0 -1 0 0 0 0
-267 -313 -339 -349 -336 -311 -290 -41 0 0 -25 -50 -58 -24 -1 -16 -56 -6 0 -38 -29 0 0 0 0 0 0 0 0 0 0 0 0 0 0 0 0 0 -1 0 0 0 0
-296 -281 -317 -306 -277 -289 0 0 0 0 0 -41 -67 -62 -5 0 -24 0 -22 -11 0 0 0 0 0 0 0 0 0 0 0 0 0 0 0 0 0 0 0 0 -1 0 0
-239 -285 -295 -308 -287 0 0 0 0 0 0 0 -8 0 -39 -2 -15 -6 -21 -19 0 0 0 0 0 0 0 0 0 0 0 0 0 0 0 0 0 0 0 0 0 0 0
-255 -282 -341 -337 -169 0 0 0 0 0 0 0 0 -4 0 -103 -1 -7 0 0 0 0 0 0 0 0 0 0 0 0 0 0 0 0 0 0 0 0 0 0 0 -1 -1
-300 -347 -370 -370 0 0 0 0 0 0 0 0 0 -18 0 -39 -1 -1 0 0 0 0 0 0 0 0 0 0 0 0 0 0 0 0 0 0 0 0 0 0 0 0 0
-361 -395 -442 -387 -326 -164 -115 -5 0 0 -3 -24 -15 -1 -4 -23 -8 -61 0 0 0 0 0 0 0 0 0 0 0 0 0 0 0 0 0 0 0 0 0 0 -1 0 0
-404 -455 -483 -270 -356 0 -101 -11 0 0 -3 -23 0 -1 -4 -4 -3 -1 0 0 0 0 0 0 0 0 0 0 0 0 0 0 0 0 0 0 0 0 0 0 0 -1 0
-500 -495 -1 0 -379 0 -8 -71 -12 0 -1 -16 -11 -4 0 -4 -3 -1 0 0 0 0 0 0 0 0 0 0 0 0 0 0 0 0 0 0 0 0 0 0 0 0 0
-527 -132 0 0 0 0 0 -8 -5 0 0 -9 -23 -22 -17 -2 -12 -63 0 0 0 0 0 0 0 0 0 0 0 0 0 0 0 0 0 0 0 0 0 0 0 0 0
-511 -136 0 0 0 0 0 0 -14 -7 -5 0 -20 -9 -8 -18 -37 -41 0 0 0 0 0 0 0 0 0 0 0 0 0 0 0 0 0 0 0 0 0 0 0 0 0
-494 0 0 0 0 0 0 0 0 0 -1 -7 -1 -2 -1 -13 -8 -61 -87 0 0 0 0 0 0 0 0 0 0 0 0 0 0 0 0 0 0 0 0 0 0 0 0
-537 0 0 0 -4 0 0 0 0 0 0 0 -20 -46 -15 -30 -41 -59 -55 -51 -34 -91 -81 0 0 0 0 0 0 0 0 0 0 0 0 0 0 0 0 0 0 0 0
-614 0 0 0 0 0 -10 -8 0 0 0 0 0 -9 -2 -5 -41 0 0 -55 -22 -44 -104 -106 0 0 0 0 0 0 0 0 0 0 -3 0 0 0 0 0 0 0 0
-348 0 0 -2 -4 0 -1 -3 0 0 -5 0 0 0 -3 -10 -10 0 0 0 -27 0 -107 -44 0 -32 0 0 0 0 0 0 -50 -12 -37 -53 -29 0 0 0 0 0 0
Wind_Speed
11 12 12 11 10 9 9 9 11 12 12 12 10 9 9 8 7 6 5 5 7 7 8 7 7 8 8 10 10 10 9 10 10 11 13 13 14 15 16 16 16 16 18
11 11 10 10 8 7 8 8 9 11 11 12 12 11 10 9 8 5 3 3 3 5 5 6 6 8 9 9 9 9 9 8 9 10 11 12 12 13 14 16 16 16 17
10 10 9 8 7 7 7 7 8 9 9 10 11 11 11 13 12 6 4 3 2 3 4 5 6 8 8 8 8 8 8 8 9 8 8 8 11 14 14 14 14 16 16
9 10 9 7 6 6 6 5 6 8 8 8 8 10 9 9 8 7 5 4 4 3 4 5 7 8 8 8 8 8 9 8 7 7 7 9 11 12 13 14 15 16 16
9 9 8 7 6 5 5 5 6 7 7 8 7 11 8 9 8 4 4 4 4 5 5 5 7 8 8 9 10 8 9 8 8 8 8 9 9 12 13 14 14 15 16
8 8 7 6 5 5 4 6 7 8 10 10 7 7 5 8 6 5 2 3 4 5 6 7 8 9 9 8 7 6 8 8 6 7 7 9 11 13 14 15 16 15 15
8 7 5 4 3 4 5 6 7 7 8 8 13 11 2 15 8 6 5 6 5 5 7 8 9 8 9 8 5 5 8 7 6 7 9 9 11 13 15 15 15 15 17
8 8 6 3 3 2 4 3 6 8 10 11 13 14 8 17 9 6 5 7 6 6 9 10 10 9 8 6 3 6 8 7 6 8 8 9 12 14 14 16 17 17 18
8 9 7 4 3 2 1 3 5 8 10 12 13 12 15 11 10 6 13 8 8 8 9 10 11 10 7 3 1 8 8 9 10 7 9 11 14 15 17 16 17 17 17
7 7 6 5 4 4 2 6 7 10 12 14 13 13 13 16 13 8 12 13 11 10 11 12 12 10 6 3 11 12 10 9 8 8 11 12 15 16 16 15 14 15 15
5 6 5 4 5 6 7 8 11 14 14 15 17 17 15 12 18 11 10 16 13 12 12 13 13 10 6 3 10 12 9 8 10 11 11 14 15 15 15 13 13 13 13
4 4 3 4 5 8 10 11 12 12 13 14 17 18 17 21 19 15 16 17 14 14 13 14 14 11 5 6 7 4 5 8 10 12 13 14 14 14 13 13 12 12 12
3 4 3 5 7 9 14 13 10 7 7 10 16 21 20 19 19 23 18 13 13 16 15 20 19 10 9 5 3 2 6 8 10 12 15 14 14 14 12 11 11 11 11
6 4 4 5 6 11 14 14 8 6 2 8 14 22 25 24 28 28 20 17 16 15 14 20 27 12 8 4 3 7 7 7 9 9 13 13 12 12 11 10 10 10 11
6 3 2 4 6 11 11 7 1 1 3 7 15 22 29 29 33 25 21 17 17 17 18 18 14 12 10 5 2 7 7 10 11 9 10 10 10 11 11 11 10 9 9
4 2 2 4 6 8 8 4 1 3 2 1 10 41 43 34 33 26 23 21 18 17 19 16 15 15 11 11 3 7 9 4 6 8 8 7 8 8 10 10 10 9 8
2 3 3 4 6 7 4 2 2 5 4 3 12 35 41 40 36 26 26 24 19 18 18 17 17 16 12 12 3 6 4 5 3 8 8 8 7 8 9 9 8 7 6
2 2 4 6 8 8 4 5 3 9 8 10 16 38 42 41 33 30 24 22 19 18 19 18 18 15 12 8 5 3 3 2 3 7 8 8 8 7 8 7 6 4 3
2 1 5 6 9 9 8 8 5 9 14 11 26 32 37 35 26 26 25 21 20 20 19 19 19 16 12 8 5 3 2 2 5 5 5 5 7 6 5 4 3 2 1
1 2 5 6 9 10 9 8 5 7 17 14 17 26 24 30 26 22 22 20 21 22 23 19 17 17 14 10 9 6 4 1 0 1 2 2 4 4 4 4 3 1 2
2 1 3 5 8 9 8 6 6 8 11 21 18 19 20 26 25 22 21 21 21 20 22 20 18 15 14 12 10 10 8 3 2 3 4 1 1 3 2 2 2 1 2
5 2 3 4 6 8 8 4 3 3 10 13 12 21 18 21 25 22 20 22 22 20 21 20 19 16 15 13 12 10 11 11 7 6 6 4 2 2 2 2 2 4 3
7 4 3 3 6 8 9 5 4 2 3 10 11 14 21 20 22 22 22 24 24 22 21 21 19 18 15 14 11 10 11 14 12 8 11 8 6 5 5 4 4 12 10
9 3 1 4 5 8 9 9 2 2 5 8 12 18 20 21 24 23 23 23 23 23 22 21 19 18 15 15 11 10 10 7 12 14 18 14 10 9 8 12 14 9 9
8 5 3 4 5 8 8 7 9 2 6 12 9 13 27 26 25 26 27 25 25 24 23 21 20 19 15 14 12 11 11 12 11 14 16 16 17 16 23 23 24 25 18
7 5 4 4 5 8 8 6 9 7 2 7 18 16 35 28 25 27 26 27 25 26 23 20 19 17 16 15 12 12 12 13 14 16 17 17 16 20 26 35 34 31 26
Wind_Direction
34 42 42 40 45 53 69 75 87 91 94 92 92 94 101 110 116 120 118 103 95 92 90 90 90 89 89 86 78 73 67 63 68 70 67 62 59 57 56 53 50 48 54
45 38 41 38 46 61 76 87 93 94 95 102 106 111 116 121 122 128 136 124 109 100 99 96 98 96 95 93 86 79 71 69 70 67 62 59 57 55 54 55 55 51 51
32 35 37 42 57 87 93 97 105 104 100 98 107 109 114 116 118 128 134 148 140 119 116 110 108 105 104 100 93 89 78 75 71 64 52 46 51 56 55 51 48 49 48
33 31 32 51 71 92 106 114 114 118 114 107 110 122 127 120 119 119 128 134 136 134 145 128 117 112 111 107 101 93 89 82 72 60 49 46 48 53 50 48 51 49 47
29 28 35 64 78 104 125 134 140 134 135 115 129 131 135 132 125 127 136 141 150 147 149 144 127 119 116 112 107 98 91 84 78 67 51 45 45 51 56 52 53 49 52
61 50 54 74 90 111 130 149 164 165 156 140 176 164 164 154 141 128 137 189 173 155 150 141 136 127 127 124 115 96 94 87 74 59 53 48 53 61 61 62 60 58 56
54 40 44 73 90 113 138 156 170 181 189 181 165 159 312 240 147 142 129 129 186 168 151 147 142 143 137 130 134 90 100 87 66 62 61 56 58 66 68 66 63 63 61
47 36 29 54 68 106 155 175 187 194 196 190 187 188 163 212 146 134 123 150 179 173 150 155 165 161 158 140 146 104 102 85 66 66 62 57 73 72 68 71 74 70 67
45 30 34 46 74 8 282 242 232 217 209 206 197 190 173 208 262 163 128 156 188 172 167 174 172 165 169 136 240 116 100 82 73 71 71 68 78 79 80 76 76 70 67
36 27 21 22 23 355 305 300 267 235 226 212 203 195 196 245 229 199 138 157 189 173 164 170 171 161 163 134 109 108 96 82 70 72 77 79 84 83 81 76 69 64 63
19 13 13 21 13 355 333 310 291 281 251 231 213 204 206 212 211 225 185 152 184 171 169 175 177 165 151 186 120 111 91 71 76 83 81 90 86 81 79 71 69 64 59
339 349 358 7 1 347 336 326 310 285 264 229 212 209 217 223 222 221 214 154 169 173 169 160 159 160 171 201 126 114 72 75 81 90 88 92 85 83 81 74 69 63 58
300 328 329 343 345 338 333 329 320 283 265 252 222 215 209 212 225 215 205 187 170 159 162 147 146 181 139 171 174 113 88 83 84 89 100 96 90 90 81 74 68 66 65
313 303 322 341 347 340 336 329 326 300 249 239 237 226 214 215 217 220 209 206 196 193 180 208 213 188 172 190 114 115 97 88 85 79 99 96 92 92 84 78 74 71 72
314 301 325 348 346 342 342 345 22 115 314 238 228 224 202 211 207 206 205 199 197 200 206 199 193 196 199 209 170 119 106 100 91 83 90 92 90 89 92 91 87 80 73
330 336 2 353 355 355 352 346 52 27 19 175 169 219 212 204 207 206 207 207 205 197 203 187 194 202 204 234 208 121 111 87 80 87 86 85 87 89 96 101 99 91 80
295 358 5 13 10 2 7 33 84 99 80 199 177 209 208 205 205 204 208 210 198 201 193 192 207 210 213 236 189 130 114 102 76 86 85 93 95 101 107 107 104 98 86
291 357 29 20 12 14 60 127 94 113 78 30 163 205 207 207 209 207 206 206 201 195 196 198 203 203 216 223 224 160 134 110 74 87 86 100 104 109 118 114 113 96 68
239 35 33 25 27 42 58 111 110 105 108 102 199 195 200 198 196 202 207 203 199 200 196 203 211 211 214 217 220 207 183 138 108 81 79 90 111 111 115 123 126 108 5
241 38 37 35 42 64 57 75 80 100 124 106 203 203 198 204 203 198 202 199 199 206 208 205 198 222 225 209 236 249 233 228 322 26 78 69 114 111 123 130 143 173 184
207 90 66 61 58 85 82 77 84 115 127 139 133 144 195 208 201 198 203 200 189 193 200 204 215 212 223 222 235 258 282 274 260 281 300 318 139 147 144 146 148 285 183
186 142 81 73 77 104 106 76 27 86 141 150 157 158 171 201 208 200 195 199 189 197 191 195 205 218 231 218 234 247 270 291 289 280 292 294 247 275 230 235 202 181 195
189 171 131 100 90 109 117 88 340 313 287 163 181 201 177 184 185 203 205 211 201 198 192 200 198 198 208 225 217 254 274 285 287 301 292 287 287 282 279 252 244 189 192
190 182 146 120 105 115 125 127 120 245 215 250 189 186 195 208 209 209 210 207 207 207 201 200 203 199 206 199 227 253 276 302 298 300 288 290 295 289 274 289 291 209 285
191 179 147 125 111 120 129 130 139 158 270 267 229 199 196 225 211 219 220 218 216 215 216 211 211 209 221 218 215 235 266 297 301 299 299 299 299 296 286 286 284 285 293
193 177 152 140 116 122 125 123 142 145 173 192 187 206 242 212 211 219 222 225 218 219 213 214 217 214 228 246 223 237 258 279 283 289 296 304 309 305 291 275 276 282 290